Location: Bavegemberg
(50.9500°N, 3.8833°E)
Time: 19:28:39
(UTC+00:00)

Cosmos 1782 Rocket - Pass Details

Date: 23 May 2024
Orbit: 602 x 629 km, 82.5° (Epoch: 14 June)

Event Time Altitude Azimuth Distance (km) Brightness Sun altitude
Rises 01:49:45 0° 346° (NNW) 2,902 7.7 -13.0°
Reaches altitude 10° 01:52:01 10° 343° (NNW) 1,987 6.8 -12.8°
Maximum altitude 01:56:20 58° 264° (W) 720 3.7 -12.5°
Enters shadow 01:59:42 16° 189° (S) 1,614 5.1 -12.2°
